THORAD DELTA 1 DEB, 8160

Orbit data source: Space-Track

THORAD DELTA 1 DEB, 8160 is space debris in SSO originally from a launch on Fri, 15 Nov 1974 UTC launched from the Air Force Western Test Range (AFWTR). Debris objects in space refer to the collection of defunct objects orbiting the Earth. Examples of debris include non-operational satellites, rocket bodies, and fragments generated from explosions, collisions, or faulty payload assembly.

Loading next visibility...
Identifier
8160, 1974-089AA
Orbit
SSO
Country
Flag of USUS
Related business
Manufacturer
Unknown
Mission
Spacecraft
Bus & Motor
Unknown
Mass
Unknown
Launch date (UTC)
1974-11-15 (51 years ago)
Launch vehicle
Unknown
Launch site
Air Force Western Test Range (AFWTR)
Object type
Payload
Rocket body
Debris
Shape & HBR
Unknown
Radar Cross Section
Small (<0.1 m²)

Expand to show TLE details & history
Last TLE update: 2 days ago

TLE from 2 days ago
0 THORAD DELTA 1 DEB
1 08160U 74089AA  25259.12507331  .00000027  00000-0  39208-3 0  9992
2 08160 101.7897  28.0677 0145877 260.6557 278.5213 12.63518193343246
Epoch: 2025-09-16T03:00Z
TLE epoch observation values (Epoch: 2025-09-16T03:00:06.333Z)
Latitude
2.33571°
Longitude
168.20682°
Altitude
1,395.566 km
Speed
7.169 km/s
True Right ascension
13h 54m 12s
True Declination
2° 19' 22"
Sunlit
Object was in daylight at epoch
Visualization orbit readout
Latitude
Unknown
Longitude
Unknown
Altitude
Unknown
Speed
Unknown
Apparent Right ascension
Unknown
Apparent Declination
Unknown
Sunlit
N/A
Visualization observer readout
Local Sidereal Time
22:27:06
Azimuth
Unknown
Elevation
Unknown
Doppler factor
Unknown
Orbital elements
Apogee altitude
1,519.54 km
Perigee altitude
1,292.435 km
Semi-major axis
7,784.124 km
Eccentricity
0.01459
Inclination
101.7897°
RAAN
28.0677°
Arg. of periapsis
260.6557°
True anomaly
276.86388°
Mean anomaly
278.5213°
Eccentric anomaly
277.69301°
Mean motion
3.1603 °/min
Orbital period
113.91 mins
BSTAR
0.00039208
Loading maneuver chart data...
Computing Atmospheric mass density...
Loading historical data...
Loading historical data...
Loading historical data...
Loading historical data...
Loading historical data...
Loading historical data...
Loading historical data...

Documentation

Showing up to 5 results
|